This demonstration page uses our WeatherBlox Daily Observations layout. Learn more.

Left ArrowRight Arrow

Hourly Observations for January 5, 2016

Temp ( °F °C ) Dew Point ( °F °C ) Humidity (%) Winds ( mph kmh ) Pressure ( in mb ) Visibility ( mi km ) Precip ( " mm )
12:53 am 00:53 Clear 30 -1.1 16 -8.9 56 56 Calm 30.39 1029 10 16 0.00 0.00
1:53 am 01:53 Clear 27 -2.8 18 -7.8 69 69 Calm 30.39 1029 10 16 0.00 0.00
2:53 am 02:53 Clear 28 -2.2 18 -7.8 66 66 Calm 30.40 1030 10 16 0.00 0.00
3:53 am 03:53 Clear 26 -3.3 20 -6.7 78 78 Calm 30.43 1030 10 16 0.00 0.00
4:53 am 04:53 Clear 27 -2.8 20 -6.7 75 75 Calm 30.43 1031 10 16 0.00 0.00
5:53 am 05:53 Clear 27 -2.8 16 -8.9 63 63 NE 6 9 30.45 1031 10 16 0.00 0.00
6:53 am 06:53 Clear 28 -2.2 14 -10 56 56 Calm 30.48 1032 10 16 0.00 0.00
7:53 am 07:53 Sunny 26 -3.3 16 -8.9 66 66 Calm 30.50 1033 10 16 0.00 0.00
8:53 am 08:53 Sunny 30 -1.1 20 -6.7 66 66 Calm 30.53 1034 10 16 0.00 0.00
9:53 am 09:53 Sunny 34 1.1 13 -10.6 42 42 ENE 10 17 30.55 1034 10 16 0.00 0.00
10:53 am 10:53 Sunny 37 2.8 12 -11.1 36 36 E 14 22 30.54 1034 10 16 0.00 0.00
11:53 am 11:53 Sunny 39 3.9 11 -11.7 31 31 ENE 12 19 30.53 1034 10 16 0.00 0.00
12:53 pm 12:53 Sunny 41 5 9 -12.8 27 27 ENE 12 19 30.50 1033 10 16 0.00 0.00
1:53 pm 13:53 Sunny 43 6.1 10 -12.2 26 26 VRB 7 11 30.47 1032 10 16 0.00 0.00
2:53 pm 14:53 Sunny 44 6.7 10 -12.2 25 25 NE 8 13 30.43 1031 10 16 0.00 0.00
3:53 pm 15:53 Sunny 44 6.7 8 -13.3 23 23 E 8 13 30.44 1031 10 16 0.00 0.00
4:53 pm 16:53 Sunny 44 6.7 10 -12.2 25 25 ENE 10 17 30.44 1031 10 16 0.00 0.00
5:53 pm 17:53 Clear 41 5 11 -11.7 29 29 ENE 7 11 30.46 1032 10 16 0.00 0.00
6:53 pm 18:53 Clear 38 3.3 14 -10 37 37 E 6 9 30.46 1032 10 16 0.00 0.00
7:53 pm 19:53 Clear 37 2.8 12 -11.1 36 36 Calm 30.48 1032 10 16 0.00 0.00
8:53 pm 20:53 Clear 37 2.8 11 -11.7 34 34 E 7 11 30.50 1033 10 16 0.00 0.00
9:53 pm 21:53 Clear 36 2.2 11 -11.7 35 35 E 5 7 30.51 1033 10 16 0.00 0.00
10:53 pm 22:53 Clear 36 2.2 11 -11.7 35 35 E 5 7 30.51 1033 10 16 0.00 0.00
11:53 pm 23:53 Clear 35 1.7 11 -11.7 37 37 VRB 5 7 30.50 1033 10 16 0.00 0.00

Powered by AerisWeather